Location: Unspecified
(0.0000°N, 0.0000°E)
Time: 17:23:03
(UTC+00:00)

Courier 1B Rocket - Pass Details

Date: 14 December 2018
Orbit: 920 x 1202 km, 28.2° (Epoch: 17 June)

Event Time Altitude Azimuth Distance (km) Brightness Sun altitude
Rises 16:45:08 0° 307° (NW) 4,060 8.6 16.0°
Reaches altitude 10° 16:47:59 10° 310° (NW) 3,114 8.1 15.3°
Maximum altitude 16:55:42 63° 30° (NNE) 1,322 5.7 13.5°
Drops below altitude 10° 17:03:21 10° 110° (ESE) 3,088 7.2 11.8°
Sets 17:06:10 0° 113° (ESE) 4,025 7.8 11.1°
